Weather History for Glasgow, United Kingdom

Change the Weather History Date:

Thursday, September 26, 2013

  Actual Average Record
Temperature  
Mean Temperature 50 °F -  
Max Temperature 57 °F 54 °F 64 °F (1996)
Min Temperature 42 °F 43 °F 32 °F (2010)
Degree Days  
Heating Degree Days 16    
Moisture  
Dew Point 47 °F    
Average Humidity 86    
Maximum Humidity 100    
Minimum Humidity 72    
Precipitation  
Precipitation 0.00 in - - ()
Sea Level Pressure  
Sea Level Pressure 30.07 in    
Wind  
Wind Speed 6 mph ()    
Max Wind Speed 12 mph    
Max Gust Speed -    
Visibility 6.1 miles    
Events Rain    
Averages and records for this station are not official NWS values.
T = Trace of Precipitation, MM = Missing Value Source: Averaged Metar Reports

Daily Weather History Graph

Daily Weather History Graph

Search for Another Location

Airport:

Trip Planner

Search our weather history database for the weather conditions in past years. The results will help you decide how hot, cold, wet, or windy it might be!

Date:

Astronomy

Sep. 26, 2013 Rise Set
Actual Time 7:10 AM BST 7:05 PM BST
Civil Twilight 6:34 AM BST 7:42 PM BST
Nautical Twilight 5:50 AM BST 8:26 PM BST
Astronomical Twilight 5:04 AM BST 9:11 PM BST
Moon 10:56 PM BST (9/26) 2:48 PM BST (9/26)
Length of Visible Light 13h 08m
Length of Day
11h 54m
Waning Gibbous, 57% of the Moon is Illuminated
Sep 26
Waning Gibbous
Sep 27
Last Quarter
Oct 5
New
Oct 12
First Quarter
Oct 19
Full

Hourly Weather History & Observations

Time (BST) Temp. Windchill Dew Point Humidity Pressure Visibility Wind Dir Wind Speed Gust Speed Precip Events Conditions
12:20 AM 46.4 °F 42.9 °F 44.6 °F 93% 30.04 in - ENE 6.9 mph - N/A   Clear
12:50 AM 48.2 °F - 46.4 °F 93% 30.04 in - ENE 6.9 mph - N/A   Clear
1:20 AM 46.4 °F 42.9 °F 44.6 °F 93% 30.04 in - ENE 6.9 mph - N/A   Clear
1:50 AM 46.4 °F 42.4 °F 44.6 °F 93% 30.04 in 6.2 mi ENE 8.1 mph - N/A   Partly Cloudy
2:20 AM 46.4 °F 42.9 °F 42.8 °F 87% 30.06 in 6.2 mi ENE 6.9 mph - N/A   Partly Cloudy
2:50 AM 44.6 °F 40.7 °F 42.8 °F 93% 30.06 in - ENE 6.9 mph - N/A   Clear
3:20 AM 44.6 °F 41.4 °F 42.8 °F 93% 30.06 in - East 5.8 mph - N/A   Clear
3:50 AM 44.6 °F 42.2 °F 42.8 °F 93% 30.06 in 6.2 mi East 4.6 mph - N/A   Scattered Clouds
4:20 AM 44.6 °F 41.4 °F 42.8 °F 93% 30.06 in 6.2 mi ENE 5.8 mph - N/A   Scattered Clouds
4:50 AM 42.8 °F 41.1 °F 41.0 °F 93% 30.06 in - East 3.5 mph - N/A   Clear
5:20 AM 42.8 °F 40.1 °F 41.0 °F 93% 30.06 in - East 4.6 mph - N/A   Clear
5:50 AM 44.6 °F 41.4 °F 42.8 °F 93% 30.06 in - East 5.8 mph - N/A   Clear
6:20 AM 44.6 °F 42.2 °F 42.8 °F 93% 30.06 in - East 4.6 mph - N/A   Clear
6:50 AM 44.6 °F 41.4 °F 42.8 °F 93% 30.06 in 6.2 mi East 5.8 mph - N/A   Scattered Clouds
7:20 AM 46.4 °F 43.5 °F 42.8 °F 87% 30.09 in 6.2 mi ENE 5.8 mph - N/A   Scattered Clouds
7:50 AM 46.4 °F 42.4 °F 44.6 °F 93% 30.09 in - ENE 8.1 mph - N/A   Clear
8:20 AM 46.4 °F 42.9 °F 44.6 °F 93% 30.09 in - East 6.9 mph - N/A   Clear
8:50 AM 48.2 °F - 44.6 °F 87% 30.09 in - East 5.8 mph - N/A   Clear
9:20 AM 48.2 °F - 46.4 °F 93% 30.09 in 6.2 mi ENE 6.9 mph - N/A   Partly Cloudy
9:50 AM 50.0 °F - 46.4 °F 87% 30.09 in 6.2 mi ENE 5.8 mph - N/A   Partly Cloudy
10:20 AM 50.0 °F - 46.4 °F 87% 30.09 in 6.2 mi ENE 6.9 mph - N/A   Partly Cloudy
10:50 AM 51.8 °F - 48.2 °F 88% 30.09 in 6.2 mi ENE 8.1 mph - N/A   Partly Cloudy
11:20 AM 51.8 °F - 48.2 °F 88% 30.09 in 6.2 mi ENE 6.9 mph - N/A   Partly Cloudy
11:50 AM 53.6 °F - 48.2 °F 82% 30.09 in 6.2 mi East 8.1 mph - N/A   Partly Cloudy
12:20 PM 53.6 °F - 48.2 °F 82% 30.09 in 6.2 mi ENE 8.1 mph - N/A   Partly Cloudy
12:50 PM 55.4 °F - 48.2 °F 77% 30.09 in 6.2 mi ENE 8.1 mph - N/A   Partly Cloudy
1:20 PM 55.4 °F - 48.2 °F 77% 30.09 in 6.2 mi ENE 8.1 mph - N/A   Partly Cloudy
1:50 PM 55.4 °F - 48.2 °F 77% 30.09 in 6.2 mi ENE 8.1 mph - N/A   Partly Cloudy
2:20 PM 57.2 °F - 48.2 °F 72% 30.06 in 6.2 mi ENE 9.2 mph - N/A   Partly Cloudy
2:50 PM 57.2 °F - 48.2 °F 72% 30.06 in 6.2 mi ENE 9.2 mph - N/A   Partly Cloudy
3:20 PM 57.2 °F - 48.2 °F 72% 30.06 in 6.2 mi ENE 11.5 mph - N/A   Partly Cloudy
3:50 PM 57.2 °F - 48.2 °F 72% 30.06 in 6.2 mi ENE 10.4 mph - N/A   Partly Cloudy
4:20 PM 57.2 °F - 48.2 °F 72% 30.06 in 6.2 mi ENE 9.2 mph - N/A   Partly Cloudy
4:50 PM 55.4 °F - 48.2 °F 77% 30.06 in 6.2 mi ENE 8.1 mph - N/A   Partly Cloudy
5:20 PM 55.4 °F - 48.2 °F 77% 30.06 in 6.2 mi ENE 8.1 mph - N/A   Partly Cloudy
5:50 PM 55.4 °F - 48.2 °F 77% 30.04 in 6.2 mi ENE 8.1 mph - N/A   Partly Cloudy
6:20 PM 55.4 °F - 48.2 °F 77% 30.04 in 6.2 mi ENE 8.1 mph - N/A   Partly Cloudy
6:50 PM 55.4 °F - 48.2 °F 77% 30.04 in 6.2 mi ENE 8.1 mph - N/A   Scattered Clouds
7:20 PM 55.4 °F - 48.2 °F 77% 30.06 in 6.2 mi ENE 6.9 mph - N/A   Mostly Cloudy
7:50 PM 55.4 °F - 48.2 °F 77% 30.06 in 6.2 mi ENE 6.9 mph - N/A   Overcast
8:20 PM 53.6 °F - 48.2 °F 82% 30.06 in 6.2 mi ENE 9.2 mph - N/A   Mostly Cloudy
8:50 PM 53.6 °F - 48.2 °F 82% 30.06 in 6.2 mi East 8.1 mph - N/A   Mostly Cloudy
9:20 PM 53.6 °F - 48.2 °F 82% 30.06 in 6.2 mi East 5.8 mph - N/A   Mostly Cloudy
9:50 PM 53.6 °F - 50.0 °F 88% 30.06 in 6.2 mi East 5.8 mph - N/A Rain Light Rain
10:20 PM 53.6 °F - 50.0 °F 88% 30.06 in 6.2 mi ENE 4.6 mph - N/A Rain Light Rain
10:50 PM 51.8 °F - 50.0 °F 94% 30.06 in 5.0 mi ENE 4.6 mph - N/A Rain Light Rain
11:20 PM 51.8 °F - 51.8 °F 100% 30.06 in 5.0 mi ENE 4.6 mph - N/A Rain Light Rain
11:50 PM 51.8 °F - 51.8 °F 100% 30.06 in 3.7 mi NE 6.9 mph - N/A Rain Light Rain